QPF
0.01 0.01 0.01 0.01 0.02 0.03 0.03 0.03 0.04 0.04 0.06 0.09 0.11 0.10 0.09 0.10 0.12 0.12 0.12 0.13 0.12 0.12 0.11 0.11 0.10 0.11 0.09 0.06 0.07 0.07 0.09 0.10 0.09 0.06 0.04 0.03 0.04 0.03 0.04 0.05 0.05 0.05 0.04
0.01 0.01 0.01 0.02 0.02 0.02 0.03 0.03 0.04 0.04 0.05 0.07 0.08 0.10 0.11 0.12 0.12 0.11 0.11 0.13 0.13 0.12 0.11 0.13 0.11 0.12 0.12 0.09 0.09 0.10 0.07 0.08 0.07 0.06 0.05 0.04 0.05 0.05 0.06 0.07 0.06 0.04 0.04
0.00 0.01 0.01 0.01 0.02 0.02 0.03 0.04 0.04 0.04 0.04 0.04 0.05 0.08 0.11 0.13 0.12 0.10 0.10 0.12 0.12 0.11 0.11 0.12 0.12 0.14 0.14 0.11 0.09 0.08 0.08 0.07 0.09 0.08 0.06 0.06 0.05 0.08 0.11 0.09 0.07 0.06 0.04
0.01 0.01 0.02 0.02 0.02 0.03 0.03 0.04 0.03 0.03 0.03 0.04 0.05 0.06 0.07 0.09 0.10 0.10 0.09 0.10 0.11 0.11 0.11 0.11 0.11 0.13 0.14 0.13 0.11 0.12 0.12 0.13 0.13 0.12 0.10 0.08 0.07 0.09 0.12 0.11 0.10 0.07 0.04
0.01 0.02 0.04 0.05 0.06 0.06 0.06 0.04 0.04 0.03 0.03 0.04 0.05 0.05 0.05 0.06 0.05 0.06 0.07 0.08 0.12 0.12 0.11 0.10 0.09 0.08 0.09 0.11 0.09 0.13 0.16 0.16 0.14 0.13 0.11 0.09 0.09 0.11 0.11 0.11 0.10 0.08 0.05
0.03 0.04 0.04 0.07 0.08 0.09 0.09 0.08 0.06 0.05 0.05 0.05 0.05 0.05 0.05 0.04 0.03 0.03 0.05 0.08 0.10 0.09 0.09 0.10 0.07 0.07 0.07 0.08 0.07 0.08 0.10 0.11 0.12 0.15 0.13 0.10 0.08 0.09 0.11 0.11 0.11 0.10 0.07
0.04 0.04 0.04 0.06 0.08 0.10 0.09 0.09 0.09 0.08 0.07 0.06 0.06 0.07 0.07 0.06 0.04 0.03 0.03 0.05 0.07 0.06 0.06 0.07 0.05 0.05 0.08 0.06 0.06 0.05 0.05 0.05 0.07 0.11 0.13 0.10 0.09 0.09 0.11 0.11 0.12 0.12 0.09
0.05 0.05 0.05 0.04 0.04 0.05 0.06 0.06 0.08 0.10 0.10 0.09 0.08 0.07 0.08 0.07 0.05 0.05 0.04 0.04 0.05 0.04 0.05 0.06 0.06 0.07 0.06 0.07 0.07 0.06 0.05 0.05 0.07 0.07 0.08 0.09 0.10 0.10 0.11 0.09 0.10 0.12 0.12
0.06 0.07 0.06 0.04 0.03 0.03 0.03 0.03 0.04 0.07 0.10 0.12 0.13 0.11 0.10 0.08 0.07 0.06 0.06 0.04 0.05 0.04 0.05 0.06 0.06 0.05 0.07 0.09 0.09 0.07 0.06 0.06 0.06 0.07 0.08 0.08 0.08 0.08 0.09 0.09 0.09 0.10 0.10
0.06 0.06 0.06 0.04 0.03 0.02 0.02 0.03 0.05 0.07 0.08 0.09 0.10 0.11 0.13 0.12 0.12 0.09 0.06 0.04 0.05 0.04 0.05 0.06 0.06 0.07 0.07 0.08 0.08 0.06 0.04 0.04 0.05 0.05 0.06 0.06 0.05 0.06 0.06 0.06 0.07 0.09 0.10
0.05 0.05 0.04 0.03 0.03 0.02 0.03 0.03 0.05 0.06 0.07 0.07 0.06 0.06 0.07 0.08 0.10 0.10 0.09 0.08 0.06 0.06 0.06 0.07 0.07 0.08 0.07 0.07 0.08 0.07 0.06 0.06 0.07 0.07 0.08 0.07 0.07 0.07 0.08 0.09 0.09 0.10 0.10
0.04 0.04 0.04 0.04 0.03 0.02 0.03 0.04 0.06 0.06 0.07 0.07 0.07 0.08 0.07 0.07 0.06 0.06 0.06 0.06 0.08 0.10 0.09 0.09 0.08 0.08 0.09 0.09 0.09 0.09 0.09 0.09 0.09 0.10 0.12 0.11 0.09 0.08 0.09 0.11 0.12 0.12 0.10
0.04 0.05 0.05 0.04 0.03 0.03 0.03 0.04 0.06 0.07 0.07 0.07 0.06 0.06 0.05 0.05 0.05 0.04 0.04 0.05 0.06 0.08 0.08 0.09 0.10 0.10 0.10 0.10 0.11 0.11 0.10 0.10 0.10 0.11 0.11 0.10 0.09 0.08 0.07 0.06 0.07 0.09 0.09
0.04 0.04 0.04 0.05 0.04 0.04 0.04 0.04 0.04 0.06 0.06 0.06 0.06 0.05 0.04 0.05 0.05 0.04 0.03 0.04 0.04 0.05 0.06 0.08 0.08 0.08 0.08 0.09 0.09 0.09 0.09 0.08 0.07 0.07 0.06 0.06 0.05 0.05 0.05 0.04 0.05 0.06 0.07
0.04 0.03 0.04 0.04 0.05 0.05 0.04 0.03 0.04 0.05 0.06 0.06 0.06 0.05 0.05 0.05 0.05 0.04 0.03 0.03 0.04 0.03 0.05 0.06 0.07 0.07 0.06 0.06 0.06 0.06 0.05 0.03 0.03 0.03 0.03 0.03 0.04 0.04 0.04 0.04 0.05 0.06 0.06
0.06 0.05 0.05 0.05 0.05 0.06 0.05 0.04 0.05 0.04 0.06 0.08 0.07 0.07 0.06 0.07 0.06 0.06 0.05 0.05 0.05 0.04 0.05 0.05 0.04 0.05 0.04 0.03 0.03 0.03 0.03 0.02 0.02 0.03 0.03 0.04 0.04 0.04 0.04 0.04 0.04 0.05 0.06
0.08 0.08 0.07 0.07 0.06 0.06 0.07 0.07 0.06 0.05 0.07 0.11 0.09 0.08 0.09 0.09 0.09 0.09 0.09 0.08 0.07 0.06 0.05 0.05 0.04 0.03 0.03 0.03 0.03 0.03 0.02 0.02 0.02 0.03 0.04 0.04 0.05 0.06 0.05 0.04 0.04 0.05 0.05
0.07 0.08 0.07 0.07 0.07 0.07 0.07 0.06 0.06 0.04 0.04 0.05 0.06 0.08 0.10 0.09 0.09 0.09 0.09 0.09 0.07 0.05 0.05 0.05 0.05 0.04 0.04 0.03 0.03 0.03 0.02 0.02 0.02 0.03 0.04 0.05 0.06 0.06 0.06 0.06 0.05 0.05 0.05
0.09 0.10 0.08 0.07 0.07 0.08 0.09 0.08 0.07 0.05 0.04 0.05 0.05 0.05 0.06 0.06 0.07 0.08 0.08 0.06 0.04 0.04 0.04 0.04 0.05 0.05 0.05 0.04 0.04 0.04 0.04 0.03 0.03 0.03 0.03 0.03 0.04 0.05 0.05 0.06 0.06 0.06 0.06
0.10 0.12 0.10 0.08 0.07 0.08 0.08 0.10 0.10 0.10 0.08 0.07 0.04 0.04 0.05 0.04 0.04 0.05 0.06 0.06 0.06 0.05 0.05 0.05 0.05 0.04 0.04 0.04 0.04 0.03 0.02 0.02 0.02 0.03 0.03 0.03 0.03 0.04 0.04 0.05 0.06 0.08 0.09
0.09 0.09 0.10 0.09 0.09 0.10 0.09 0.08 0.08 0.09 0.10 0.09 0.08 0.07 0.07 0.05 0.05 0.04 0.04 0.05 0.05 0.04 0.04 0.04 0.03 0.03 0.03 0.02 0.02 0.02 0.02 0.02 0.03 0.03 0.04 0.04 0.04 0.04 0.04 0.04 0.05 0.06 0.07
0.07 0.06 0.07 0.05 0.07 0.10 0.08 0.04 0.04 0.04 0.05 0.05 0.06 0.06 0.06 0.05 0.05 0.05 0.05 0.05 0.05 0.05 0.04 0.03 0.03 0.03 0.03 0.03 0.03 0.03 0.03 0.04 0.04 0.05 0.06 0.06 0.06 0.06 0.06 0.07 0.07 0.07 0.08
0.05 0.04 0.05 0.05 0.05 0.04 0.03 0.02 0.03 0.03 0.03 0.04 0.04 0.04 0.04 0.04 0.04 0.05 0.05 0.05 0.04 0.04 0.04 0.03 0.02 0.02 0.03 0.03 0.03 0.03 0.03 0.04 0.05 0.06 0.07 0.07 0.07 0.08 0.09 0.09 0.08 0.08 0.07
0.08 0.06 0.05 0.04 0.03 0.03 0.03 0.03 0.04 0.04 0.04 0.04 0.04 0.03 0.03 0.03 0.03 0.03 0.03 0.04 0.04 0.05 0.05 0.05 0.04 0.04 0.04 0.04 0.03 0.03 0.03 0.04 0.05 0.06 0.07 0.06 0.06 0.07 0.08 0.08 0.07 0.06 0.06
0.05 0.05 0.04 0.03 0.03 0.03 0.04 0.05 0.06 0.06 0.05 0.05 0.04 0.03 0.02 0.02 0.02 0.02 0.02 0.02 0.02 0.03 0.04 0.05 0.07 0.08 0.07 0.06 0.05 0.05 0.05 0.05 0.06 0.06 0.06 0.07 0.07 0.07 0.08 0.07 0.06 0.05 0.05
0.02 0.03 0.03 0.03 0.03 0.03 0.04 0.05 0.05 0.05 0.06 0.06 0.05 0.05 0.04 0.03 0.02 0.03 0.03 0.02 0.02 0.03 0.03 0.03 0.04 0.04 0.04 0.04 0.05 0.05 0.06 0.06 0.06 0.07 0.08 0.08 0.08 0.08 0.08 0.08 0.07 0.06 0.06
MSLP
1011.90 1012.05 1012.18 1012.26 1012.28 1012.23 1012.12 1011.98 1011.82 1011.67 1011.55 1011.47 1011.42 1011.39 1011.37 1011.34 1011.29 1011.21 1011.11 1011.00 1010.89 1010.80 1010.74 1010.72 1010.73 1010.77 1010.81 1010.85 1010.85 1010.80 1010.69 1010.50 1010.26 1009.95 1009.61 1009.25 1008.92 1008.65 1008.46 1008.38 1008.42 1008.59 1008.87
1012.15 1012.26 1012.35 1012.39 1012.39 1012.32 1012.20 1012.05 1011.88 1011.71 1011.57 1011.45 1011.37 1011.32 1011.28 1011.24 1011.19 1011.12 1011.03 1010.91 1010.78 1010.65 1010.53 1010.42 1010.33 1010.26 1010.21 1010.16 1010.10 1010.02 1009.91 1009.75 1009.55 1009.30 1009.02 1008.73 1008.45 1008.20 1008.02 1007.93 1007.95 1008.08 1008.32
1012.44 1012.52 1012.57 1012.59 1012.55 1012.47 1012.34 1012.18 1012.00 1011.82 1011.66 1011.53 1011.43 1011.36 1011.31 1011.27 1011.23 1011.17 1011.09 1010.99 1010.85 1010.69 1010.53 1010.35 1010.18 1010.02 1009.88 1009.75 1009.62 1009.50 1009.37 1009.22 1009.04 1008.83 1008.59 1008.34 1008.10 1007.88 1007.70 1007.61 1007.60 1007.69 1007.87
1012.72 1012.78 1012.80 1012.80 1012.75 1012.65 1012.52 1012.36 1012.17 1011.99 1011.82 1011.68 1011.57 1011.49 1011.43 1011.40 1011.36 1011.32 1011.26 1011.17 1011.04 1010.88 1010.69 1010.48 1010.25 1010.03 1009.82 1009.62 1009.43 1009.26 1009.10 1008.93 1008.75 1008.55 1008.34 1008.11 1007.87 1007.66 1007.48 1007.36 1007.31 1007.36 1007.49
1012.92 1012.97 1012.99 1012.97 1012.91 1012.81 1012.68 1012.51 1012.34 1012.16 1011.99 1011.84 1011.72 1011.63 1011.57 1011.53 1011.51 1011.48 1011.44 1011.36 1011.26 1011.11 1010.93 1010.71 1010.47 1010.22 1009.97 1009.72 1009.49 1009.28 1009.08 1008.88 1008.67 1008.46 1008.22 1007.98 1007.73 1007.49 1007.28 1007.12 1007.03 1007.01 1007.08
1012.99 1013.04 1013.05 1013.03 1012.97 1012.87 1012.74 1012.59 1012.42 1012.25 1012.09 1011.94 1011.81 1011.72 1011.65 1011.61 1011.58 1011.56 1011.53 1011.49 1011.41 1011.30 1011.14 1010.95 1010.73 1010.48 1010.23 1009.97 1009.72 1009.47 1009.23 1008.99 1008.74 1008.48 1008.20 1007.90 1007.61 1007.32 1007.05 1006.83 1006.68 1006.59 1006.59
1012.89 1012.95 1012.97 1012.94 1012.88 1012.79 1012.67 1012.53 1012.37 1012.21 1012.05 1011.91 1011.78 1011.68 1011.61 1011.56 1011.53 1011.51 1011.49 1011.47 1011.43 1011.35 1011.24 1011.10 1010.92 1010.71 1010.48 1010.23 1009.98 1009.71 1009.44 1009.15 1008.85 1008.53 1008.19 1007.82 1007.45 1007.09 1006.75 1006.45 1006.22 1006.06 1005.98
1012.64 1012.70 1012.72 1012.70 1012.64 1012.55 1012.44 1012.31 1012.16 1012.01 1011.86 1011.73 1011.60 1011.49 1011.41 1011.35 1011.32 1011.30 1011.29 1011.29 1011.27 1011.24 1011.18 1011.09 1010.97 1010.81 1010.62 1010.41 1010.16 1009.90 1009.60 1009.28 1008.93 1008.55 1008.13 1007.69 1007.24 1006.79 1006.36 1005.97 1005.65 1005.41 1005.25
1012.27 1012.34 1012.36 1012.34 1012.28 1012.19 1012.08 1011.96 1011.82 1011.68 1011.54 1011.41 1011.29 1011.19 1011.11 1011.05 1011.01 1010.99 1010.98 1010.99 1011.00 1011.00 1010.98 1010.94 1010.86 1010.75 1010.61 1010.42 1010.20 1009.94 1009.64 1009.30 1008.91 1008.48 1008.00 1007.49 1006.96 1006.42 1005.90 1005.42 1005.00 1004.67 1004.43
1011.87 1011.95 1011.97 1011.95 1011.88 1011.79 1011.67 1011.54 1011.41 1011.28 1011.16 1011.04 1010.94 1010.85 1010.77 1010.72 1010.68 1010.66 1010.66 1010.67 1010.68 1010.70 1010.70 1010.68 1010.63 1010.55 1010.44 1010.28 1010.08 1009.83 1009.53 1009.18 1008.78 1008.31 1007.80 1007.24 1006.65 1006.04 1005.43 1004.86 1004.34 1003.90 1003.56
1011.52 1011.60 1011.62 1011.58 1011.50 1011.40 1011.27 1011.14 1011.01 1010.89 1010.78 1010.69 1010.61 1010.55 1010.50 1010.46 1010.44 1010.42 1010.42 1010.43 1010.43 1010.43 1010.42 1010.40 1010.35 1010.27 1010.15 1010.00 1009.81 1009.57 1009.28 1008.94 1008.54 1008.08 1007.56 1006.98 1006.35 1005.68 1005.01 1004.34 1003.72 1003.17 1002.72
1011.26 1011.33 1011.34 1011.29 1011.19 1011.07 1010.93 1010.79 1010.67 1010.56 1010.48 1010.42 1010.38 1010.36 1010.34 1010.34 1010.34 1010.34 1010.34 1010.33 1010.32 1010.29 1010.24 1010.17 1010.08 1009.96 1009.82 1009.65 1009.45 1009.21 1008.94 1008.62 1008.24 1007.81 1007.30 1006.73 1006.09 1005.40 1004.67 1003.92 1003.20 1002.53 1001.95
1011.08 1011.14 1011.13 1011.06 1010.94 1010.80 1010.64 1010.50 1010.38 1010.29 1010.25 1010.23 1010.24 1010.28 1010.32 1010.37 1010.41 1010.43 1010.43 1010.41 1010.36 1010.27 1010.17 1010.03 1009.87 1009.68 1009.49 1009.27 1009.05 1008.81 1008.54 1008.25 1007.92 1007.53 1007.06 1006.52 1005.90 1005.20 1004.43 1003.62 1002.80 1002.01 1001.29
1010.93 1010.98 1010.94 1010.85 1010.71 1010.54 1010.37 1010.23 1010.12 1010.06 1010.05 1010.09 1010.17 1010.27 1010.38 1010.48 1010.57 1010.62 1010.63 1010.59 1010.50 1010.36 1010.18 1009.95 1009.70 1009.44 1009.16 1008.89 1008.63 1008.38 1008.13 1007.87 1007.58 1007.25 1006.85 1006.36 1005.77 1005.08 1004.29 1003.44 1002.53 1001.63 1000.78
1010.76 1010.77 1010.70 1010.58 1010.41 1010.23 1010.06 1009.92 1009.82 1009.80 1009.83 1009.92 1010.06 1010.23 1010.41 1010.58 1010.72 1010.80 1010.82 1010.77 1010.65 1010.45 1010.19 1009.88 1009.54 1009.19 1008.84 1008.51 1008.21 1007.95 1007.71 1007.48 1007.25 1006.98 1006.64 1006.22 1005.68 1005.02 1004.23 1003.34 1002.38 1001.38 1000.40
1010.48 1010.45 1010.35 1010.20 1010.01 1009.82 1009.64 1009.51 1009.44 1009.44 1009.51 1009.65 1009.85 1010.08 1010.32 1010.54 1010.72 1010.84 1010.87 1010.81 1010.66 1010.42 1010.10 1009.73 1009.31 1008.89 1008.48 1008.11 1007.78 1007.51 1007.28 1007.09 1006.91 1006.70 1006.43 1006.07 1005.59 1004.97 1004.20 1003.30 1002.30 1001.24 1000.18
1010.07 1010.00 1009.87 1009.69 1009.49 1009.29 1009.12 1008.99 1008.94 1008.96 1009.07 1009.24 1009.48 1009.75 1010.02 1010.28 1010.49 1010.62 1010.67 1010.61 1010.44 1010.17 1009.82 1009.41 1008.95 1008.49 1008.05 1007.66 1007.32 1007.06 1006.86 1006.70 1006.57 1006.42 1006.21 1005.91 1005.49 1004.91 1004.17 1003.29 1002.29 1001.21 1000.11
1009.57 1009.45 1009.29 1009.10 1008.89 1008.69 1008.53 1008.42 1008.38 1008.41 1008.53 1008.71 1008.96 1009.23 1009.51 1009.78 1009.99 1010.12 1010.17 1010.11 1009.94 1009.67 1009.31 1008.89 1008.44 1007.98 1007.55 1007.17 1006.85 1006.61 1006.45 1006.33 1006.24 1006.14 1005.99 1005.74 1005.37 1004.84 1004.15 1003.31 1002.34 1001.28 1000.18
1009.03 1008.88 1008.71 1008.51 1008.31 1008.12 1007.96 1007.86 1007.82 1007.85 1007.95 1008.12 1008.34 1008.58 1008.84 1009.07 1009.25 1009.37 1009.40 1009.34 1009.17 1008.92 1008.59 1008.20 1007.79 1007.38 1006.99 1006.66 1006.39 1006.20 1006.08 1006.01 1005.96 1005.90 1005.78 1005.58 1005.25 1004.77 1004.13 1003.35 1002.44 1001.44 1000.40
1008.53 1008.37 1008.20 1008.01 1007.82 1007.65 1007.50 1007.40 1007.35 1007.36 1007.43 1007.54 1007.70 1007.89 1008.07 1008.24 1008.38 1008.45 1008.46 1008.39 1008.24 1008.01 1007.73 1007.41 1007.07 1006.74 1006.44 1006.18 1005.99 1005.87 1005.80 1005.77 1005.75 1005.72 1005.63 1005.45 1005.16 1004.72 1004.15 1003.43 1002.60 1001.69 1000.74
1008.13 1007.98 1007.82 1007.65 1007.49 1007.33 1007.20 1007.09 1007.03 1007.00 1007.01 1007.05 1007.13 1007.22 1007.32 1007.40 1007.46 1007.48 1007.45 1007.37 1007.23 1007.05 1006.84 1006.60 1006.36 1006.14 1005.95 1005.80 1005.70 1005.65 1005.64 1005.65 1005.66 1005.64 1005.56 1005.40 1005.13 1004.73 1004.21 1003.57 1002.83 1002.02 1001.18
1007.82 1007.70 1007.57 1007.44 1007.30 1007.17 1007.04 1006.93 1006.84 1006.76 1006.71 1006.68 1006.66 1006.65 1006.64 1006.62 1006.60 1006.55 1006.49 1006.39 1006.28 1006.15 1006.01 1005.88 1005.75 1005.65 1005.58 1005.54 1005.54 1005.57 1005.61 1005.66 1005.69 1005.68 1005.60 1005.43 1005.17 1004.80 1004.32 1003.75 1003.09 1002.39 1001.66
1007.57 1007.48 1007.39 1007.29 1007.18 1007.07 1006.95 1006.84 1006.72 1006.60 1006.48 1006.37 1006.26 1006.15 1006.05 1005.94 1005.84 1005.74 1005.64 1005.54 1005.46 1005.38 1005.33 1005.30 1005.29 1005.31 1005.36 1005.43 1005.53 1005.63 1005.72 1005.80 1005.83 1005.82 1005.73 1005.55 1005.29 1004.93 1004.49 1003.97 1003.39 1002.77 1002.15
1007.28 1007.22 1007.16 1007.10 1007.02 1006.93 1006.82 1006.70 1006.56 1006.41 1006.24 1006.06 1005.88 1005.70 1005.52 1005.34 1005.18 1005.04 1004.93 1004.85 1004.80 1004.79 1004.82 1004.88 1004.99 1005.13 1005.29 1005.46 1005.64 1005.80 1005.94 1006.03 1006.06 1006.03 1005.92 1005.73 1005.45 1005.09 1004.67 1004.19 1003.67 1003.13 1002.59
1006.86 1006.84 1006.81 1006.77 1006.71 1006.64 1006.54 1006.41 1006.26 1006.09 1005.89 1005.68 1005.45 1005.22 1005.00 1004.79 1004.61 1004.46 1004.35 1004.29 1004.29 1004.35 1004.46 1004.63 1004.83 1005.07 1005.33 1005.59 1005.83 1006.04 1006.21 1006.31 1006.33 1006.28 1006.14 1005.92 1005.63 1005.27 1004.85 1004.40 1003.92 1003.44 1002.96
1006.30 1006.29 1006.28 1006.26 1006.21 1006.15 1006.06 1005.94 1005.79 1005.61 1005.40 1005.18 1004.94 1004.70 1004.47 1004.25 1004.08 1003.94 1003.87 1003.86 1003.91 1004.04 1004.24 1004.49 1004.78 1005.11 1005.45 1005.77 1006.06 1006.31 1006.49 1006.58 1006.60 1006.52 1006.35 1006.11 1005.79 1005.42 1005.01 1004.58 1004.13 1003.68 1003.24
Thickness
5808 5804 5802 5799 5797 5795 5792 5791 5789 5788 5787 5784 5782 5780 5777 5776 5774 5771 5770 5769 5767 5765 5764 5762 5760 5759 5757 5757 5757 5756 5754 5751 5744 5748 5752 5754 5753 5752 5750 5749 5748 5745 5743
5806 5803 5799 5797 5795 5792 5789 5788 5787 5784 5784 5782 5779 5777 5774 5773 5771 5769 5766 5766 5763 5761 5760 5758 5757 5756 5754 5752 5751 5750 5749 5749 5745 5742 5745 5747 5747 5748 5746 5745 5744 5743 5741
5804 5799 5796 5793 5791 5789 5787 5785 5783 5781 5779 5778 5776 5772 5771 5769 5768 5767 5765 5762 5761 5759 5757 5754 5752 5750 5748 5747 5746 5744 5745 5746 5744 5740 5740 5742 5742 5743 5741 5740 5739 5738 5736
5800 5796 5792 5789 5787 5785 5783 5781 5779 5777 5774 5773 5771 5769 5767 5765 5764 5762 5760 5757 5756 5755 5753 5750 5748 5746 5743 5742 5741 5740 5739 5737 5737 5735 5734 5734 5734 5735 5733 5730 5728 5729 5729
5793 5789 5787 5786 5783 5781 5778 5776 5774 5772 5770 5768 5765 5764 5763 5760 5758 5756 5754 5753 5750 5748 5747 5746 5743 5741 5740 5738 5737 5735 5733 5730 5728 5727 5726 5725 5724 5723 5722 5722 5720 5720 5721
5785 5782 5781 5779 5776 5774 5772 5770 5768 5767 5765 5763 5760 5757 5755 5755 5752 5750 5748 5746 5744 5741 5739 5738 5737 5736 5734 5733 5731 5730 5728 5724 5722 5720 5719 5717 5717 5717 5716 5714 5712 5709 5708
5775 5775 5773 5771 5768 5767 5766 5763 5760 5759 5757 5755 5753 5751 5748 5745 5744 5742 5741 5739 5737 5735 5732 5730 5730 5730 5727 5726 5724 5723 5721 5720 5718 5716 5713 5713 5712 5712 5709 5706 5704 5702 5701
5766 5765 5765 5763 5761 5759 5757 5755 5753 5752 5749 5747 5745 5744 5741 5739 5736 5734 5732 5731 5730 5728 5726 5724 5721 5720 5719 5717 5716 5715 5714 5712 5711 5710 5709 5709 5708 5706 5704 5701 5699 5696 5696
5755 5756 5755 5754 5752 5751 5748 5747 5746 5743 5741 5739 5738 5737 5734 5731 5728 5726 5723 5722 5721 5720 5719 5717 5715 5713 5711 5709 5706 5705 5704 5703 5704 5703 5703 5701 5700 5698 5695 5691 5688 5685 5683
5746 5747 5747 5746 5744 5742 5741 5740 5739 5736 5734 5732 5730 5728 5726 5723 5721 5718 5714 5714 5712 5711 5710 5709 5706 5704 5701 5699 5697 5695 5693 5694 5693 5693 5691 5691 5690 5688 5686 5682 5680 5676 5675
5738 5737 5737 5736 5735 5734 5733 5731 5730 5728 5725 5723 5721 5719 5718 5717 5713 5710 5707 5705 5704 5703 5702 5700 5698 5695 5692 5691 5688 5686 5685 5684 5683 5682 5681 5681 5680 5677 5676 5673 5671 5669 5666
5727 5726 5725 5725 5725 5725 5722 5721 5720 5718 5716 5713 5711 5709 5709 5707 5705 5702 5699 5697 5696 5694 5693 5692 5689 5685 5683 5681 5679 5678 5676 5674 5673 5672 5671 5669 5668 5666 5665 5664 5662 5661 5660
5714 5714 5713 5713 5713 5712 5711 5710 5708 5707 5705 5703 5701 5700 5700 5699 5696 5693 5690 5688 5686 5684 5684 5682 5678 5676 5674 5672 5671 5669 5666 5665 5663 5661 5660 5659 5658 5657 5655 5653 5652 5651 5650
5701 5701 5701 5701 5700 5699 5699 5699 5697 5696 5694 5694 5692 5690 5690 5688 5684 5681 5679 5677 5674 5673 5671 5669 5667 5666 5664 5662 5661 5660 5658 5657 5654 5652 5651 5649 5648 5646 5644 5642 5641 5639 5638
5689 5689 5690 5690 5689 5687 5686 5685 5685 5683 5683 5682 5682 5681 5677 5675 5672 5670 5668 5666 5664 5662 5658 5658 5658 5657 5655 5653 5652 5651 5649 5647 5644 5642 5641 5639 5637 5635 5634 5633 5631 5629 5627
5677 5677 5678 5678 5678 5677 5675 5672 5671 5670 5670 5670 5669 5669 5667 5664 5661 5659 5656 5654 5651 5649 5647 5647 5647 5646 5644 5643 5641 5639 5638 5635 5634 5632 5630 5627 5626 5624 5623 5623 5621 5619 5617
5666 5666 5667 5667 5667 5667 5666 5664 5661 5658 5657 5656 5656 5655 5654 5651 5650 5647 5645 5642 5640 5637 5637 5638 5637 5636 5634 5633 5631 5628 5626 5624 5622 5620 5618 5616 5614 5613 5611 5610 5609 5607 5606
5657 5658 5658 5658 5658 5658 5657 5655 5654 5652 5649 5646 5644 5642 5641 5640 5639 5637 5634 5631 5631 5630 5630 5629 5627 5626 5624 5622 5620 5617 5615 5613 5610 5608 5606 5604 5603 5601 5599 5598 5597 5596 5596
5649 5649 5649 5650 5650 5649 5647 5646 5644 5643 5641 5638 5637 5634 5630 5629 5627 5625 5623 5622 5624 5623 5622 5620 5618 5616 5614 5611 5609 5607 5604 5602 5600 5597 5595 5593 5592 5589 5588 5587 5586 5585 5585
5640 5639 5639 5640 5640 5639 5637 5636 5634 5633 5631 5629 5627 5626 5623 5621 5620 5618 5615 5615 5614 5613 5612 5610 5608 5606 5604 5602 5599 5596 5594 5592 5589 5587 5585 5583 5581 5579 5578 5578 5577 5576 5576
5632 5632 5630 5630 5629 5628 5627 5627 5626 5624 5622 5619 5618 5616 5614 5613 5612 5611 5610 5608 5606 5605 5604 5602 5600 5597 5595 5592 5590 5587 5585 5582 5579 5577 5575 5573 5571 5570 5569 5569 5569 5568 5568
5626 5625 5624 5623 5622 5621 5620 5619 5618 5616 5614 5612 5609 5608 5605 5606 5605 5604 5603 5601 5598 5596 5595 5593 5591 5589 5587 5584 5581 5578 5576 5573 5570 5568 5566 5564 5563 5562 5562 5562 5561 5561 5560
5620 5620 5618 5616 5615 5613 5612 5612 5610 5608 5606 5603 5602 5600 5599 5597 5596 5595 5594 5593 5591 5589 5586 5584 5581 5579 5577 5574 5571 5568 5565 5563 5561 5559 5557 5556 5555 5554 5554 5554 5553 5553 5552
5614 5613 5611 5609 5608 5607 5606 5603 5601 5599 5598 5596 5593 5592 5590 5589 5588 5586 5585 5584 5582 5580 5578 5575 5571 5568 5566 5564 5561 5558 5555 5553 5552 5551 5550 5548 5547 5547 5546 5545 5545 5544 5544
5608 5606 5604 5602 5600 5599 5596 5594 5592 5590 5589 5587 5584 5582 5581 5580 5579 5578 5576 5574 5572 5570 5568 5566 5563 5560 5557 5555 5552 5549 5547 5544 5542 5541 5540 5539 5539 5538 5537 5536 5536 5536 5536
5600 5598 5596 5595 5593 5591 5588 5586 5584 5582 5581 5579 5576 5574 5573 5571 5571 5570 5568 5565 5562 5560 5558 5557 5554 5552 5549 5546 5543 5541 5539 5537 5535 5533 5531 5530 5530 5529 5528 5528 5528 5528 5528